Ravenna, OH

1:25 AM EDT on July 21, 2017 (GMT -0400)
Ravenna

Weather History for KPOV - March, 2014

Change the Weather History Date:

Wednesday, March 5, 2014

  Actual Average (KCAK) Record (KCAK)
Temperature  
Mean Temperature 20 °F -  
Max Temperature 25 °F 45 °F 77 °F (1983)
Min Temperature 13 °F 26 °F 4 °F (2015)
Degree Days  
Heating Degree Days 46    
Moisture  
Dew Point 7 °F    
Average Humidity 58    
Maximum Humidity 70    
Minimum Humidity 46    
Precipitation  
Precipitation 0.00 in - - ()
Sea Level Pressure  
Sea Level Pressure 30.30 in    
Wind  
Wind Speed 5 mph (NNE)    
Max Wind Speed 13 mph    
Max Gust Speed 18 mph    
Visibility 10 miles    
Events      
Averages and records for this station are not official NWS values.
T = Trace of Precipitation, MM = Missing Value Source: NWS Daily Summary

Daily Weather History Graph

Daily Weather History Graph

Search for Another Location

Airport or City:

Trip Planner

Search our weather history database for the weather conditions in past years. The results will help you decide how hot, cold, wet, or windy it might be!

Date:

Astronomy

Mar. 05, 2014 Rise Set
Actual Time 6:53 AM EST 6:20 PM EST
Civil Twilight 6:25 AM EST 6:48 PM EST
Nautical Twilight 5:53 AM EST 7:20 PM EST
Astronomical Twilight 5:21 AM EST 7:52 PM EST
Moon 9:14 AM EST (3/5) 11:30 PM EST (3/5)
Length of Visible Light 12h 22m
Length of Day
11h 27m
Waxing Crescent, 23% of the Moon is Illuminated
Mar 5
Waxing Crescent
Mar 8
First Quarter
Mar 16
Full
Mar 23
Last Quarter
Mar 30
New

Hourly Weather History & Observations

Time (EST) Temp. Windchill Dew Point Humidity Pressure Visibility Wind Dir Wind Speed Gust Speed Precip Events Conditions
12:14 AM 21.2 °F - 10.0 °F 62% 30.17 in 10.0 mi Calm Calm - N/A   Overcast
12:33 AM 19.4 °F - 9.9 °F 66% 30.17 in 10.0 mi Calm Calm - N/A   Overcast
12:53 AM 20.7 °F 11.9 °F 10.6 °F 65% 30.18 in 10.0 mi NW 6.9 mph - N/A   Overcast
1:14 AM 20.3 °F 15.4 °F 10.2 °F 65% 30.18 in 10.0 mi NW 3.5 mph - N/A   Overcast
1:33 AM 20.3 °F - 9.7 °F 64% 30.18 in 10.0 mi Calm Calm - N/A   Overcast
1:53 AM 20.5 °F - 9.0 °F 61% 30.19 in 10.0 mi Calm Calm - N/A   Overcast
2:14 AM 20.3 °F - 9.1 °F 62% 30.18 in 10.0 mi Calm Calm - N/A   Overcast
2:33 AM 20.3 °F 13.8 °F 9.5 °F 63% 30.19 in 10.0 mi NNW 4.6 mph - N/A   Overcast
2:53 AM 20.1 °F 13.6 °F 9.1 °F 62% 30.18 in 10.0 mi NNW 4.6 mph - N/A   Overcast
3:13 AM 19.8 °F 13.2 °F 9.3 °F 64% 30.18 in 10.0 mi North 4.6 mph - N/A   Overcast
3:33 AM 19.8 °F - 9.3 °F 64% 30.18 in 10.0 mi Calm Calm - N/A   Overcast
3:53 AM 19.6 °F 13.0 °F 9.0 °F 63% 30.18 in 10.0 mi NNW 4.6 mph - N/A   Overcast
4:13 AM 19.2 °F 12.5 °F 7.7 °F 61% 30.18 in 10.0 mi North 4.6 mph - N/A   Overcast
4:34 AM 18.9 °F 10.8 °F 6.3 °F 58% 30.18 in 10.0 mi NNW 5.8 mph - N/A   Overcast
4:53 AM 18.9 °F 13.7 °F 5.7 °F 57% 30.19 in 10.0 mi North 3.5 mph - N/A   Overcast
5:13 AM 18.5 °F - 5.2 °F 56% 30.19 in 10.0 mi Calm Calm - N/A   Overcast
5:33 AM 18.5 °F 11.7 °F 3.6 °F 52% 30.19 in 10.0 mi North 4.6 mph - N/A   Overcast
5:53 AM 18.3 °F 13.1 °F 4.6 °F 55% 30.21 in 10.0 mi NNW 3.5 mph - N/A   Overcast
6:13 AM 18.0 °F 9.8 °F 4.6 °F 56% 30.22 in 10.0 mi NNW 5.8 mph - N/A   Overcast
6:33 AM 17.8 °F 9.6 °F 3.0 °F 53% 30.24 in 10.0 mi NNW 5.8 mph - N/A   Overcast
6:53 AM 17.4 °F 8.0 °F 3.2 °F 54% 30.24 in 10.0 mi North 6.9 mph - N/A   Overcast
7:14 AM 17.4 °F - 4.5 °F 57% 30.24 in 10.0 mi Calm Calm - N/A   Overcast
7:33 AM 17.4 °F 10.4 °F 3.4 °F 54% 30.25 in 10.0 mi North 4.6 mph - N/A   Overcast
7:53 AM 17.6 °F 8.2 °F 0.1 °F 46% 30.26 in 10.0 mi North 6.9 mph - N/A   Overcast
8:13 AM 18.0 °F 9.8 °F 0.5 °F 47% 30.27 in 10.0 mi NNE 5.8 mph - N/A   Overcast
8:34 AM 18.0 °F 8.7 °F 1.0 °F 48% 30.27 in 10.0 mi North 6.9 mph - N/A   Overcast
8:53 AM 18.1 °F 10.0 °F 1.9 °F 49% 30.28 in 10.0 mi North 5.8 mph - N/A   Overcast
9:13 AM 18.5 °F 11.7 °F 2.8 °F 51% 30.28 in 10.0 mi NE 4.6 mph - N/A   Overcast
9:34 AM 19.0 °F 11.1 °F 2.8 °F 49% 30.29 in 10.0 mi North 5.8 mph - N/A   Overcast
9:53 AM 19.9 °F 10.1 °F 5.0 °F 52% 30.30 in 10.0 mi NE 8.1 mph - N/A   Overcast
10:14 AM 19.9 °F 11.1 °F 3.6 °F 49% 30.30 in 10.0 mi NE 6.9 mph - N/A   Overcast
10:33 AM 21.2 °F 11.7 °F 4.1 °F 48% 30.30 in 10.0 mi NE 8.1 mph - N/A   Scattered Clouds
10:53 AM 21.7 °F 17.0 °F 4.6 °F 48% 30.31 in 10.0 mi NNE 3.5 mph - N/A   Clear
11:13 AM 21.7 °F 15.5 °F 6.1 °F 51% 30.31 in 10.0 mi NE 4.6 mph - N/A   Scattered Clouds
11:33 AM 22.5 °F 15.1 °F 7.2 °F 52% 30.31 in 10.0 mi North 5.8 mph - N/A   Scattered Clouds
11:53 AM 22.3 °F 13.0 °F 7.3 °F 53% 30.32 in 10.0 mi NE 8.1 mph - N/A   Mostly Cloudy
12:13 PM 23.9 °F 15.8 °F 9.0 °F 53% 30.33 in 10.0 mi NNE 6.9 mph - N/A   Scattered Clouds
12:33 PM 24.1 °F 17.0 °F 8.4 °F 51% 30.34 in 10.0 mi North 5.8 mph - N/A   Mostly Cloudy
12:54 PM 24.1 °F 14.4 °F 9.3 °F 53% 30.33 in 10.0 mi North 9.2 mph - N/A   Overcast
1:13 PM 25.3 °F 18.5 °F 9.9 °F 52% 30.31 in 10.0 mi NNE 5.8 mph - N/A   Mostly Cloudy
1:33 PM 24.6 °F 16.7 °F 10.4 °F 55% 30.33 in 10.0 mi NNE 6.9 mph - N/A   Mostly Cloudy
1:54 PM 24.6 °F 16.7 °F 9.5 °F 53% 30.33 in 10.0 mi NNE 6.9 mph - N/A   Overcast
2:13 PM 24.8 °F 16.9 °F 10.9 °F 56% 30.33 in 10.0 mi NE 6.9 mph - N/A   Overcast
2:33 PM 23.9 °F 15.8 °F 9.9 °F 55% 30.33 in 10.0 mi NNE 6.9 mph - N/A   Overcast
2:54 PM 24.3 °F 14.6 °F 10.8 °F 56% 30.33 in 10.0 mi NE 9.2 mph - N/A   Overcast
3:14 PM 23.7 °F 14.0 °F 9.9 °F 56% 30.33 in 10.0 mi NNE 9.2 mph - N/A   Overcast
3:33 PM 23.7 °F 14.7 °F 9.5 °F 55% 30.34 in 10.0 mi NNE 8.1 mph 17.3 mph N/A   Overcast
3:54 PM 24.1 °F 14.4 °F 8.4 °F 51% 30.34 in 10.0 mi NE 9.2 mph 16.1 mph N/A   Scattered Clouds
4:14 PM 23.4 °F 12.8 °F 7.9 °F 52% 30.35 in 10.0 mi NNE 10.4 mph 18.4 mph N/A   Clear
4:34 PM 22.6 °F 10.7 °F 6.6 °F 50% 30.36 in 10.0 mi North 12.7 mph - N/A   Clear
4:53 PM 22.6 °F 12.6 °F 7.3 °F 52% 30.37 in 10.0 mi NNE 9.2 mph - N/A   Mostly Cloudy
5:14 PM 21.2 °F 12.6 °F 6.3 °F 53% 30.37 in 10.0 mi NNE 6.9 mph - N/A   Scattered Clouds
5:33 PM 21.6 °F 10.6 °F 7.5 °F 55% 30.37 in 10.0 mi NNE 10.4 mph - N/A   Clear
5:54 PM 20.1 °F 8.8 °F 6.8 °F 56% 30.38 in 10.0 mi NE 10.4 mph 16.1 mph N/A   Clear
6:13 PM 19.2 °F 7.7 °F 6.4 °F 58% 30.39 in 10.0 mi NNE 10.4 mph - N/A   Clear
6:34 PM 18.5 °F 6.8 °F 6.6 °F 60% 30.39 in 10.0 mi NNE 10.4 mph - N/A   Clear
6:53 PM 18.0 °F 8.7 °F 6.4 °F 61% 30.40 in 10.0 mi NE 6.9 mph - N/A   Clear
7:13 PM 17.4 °F 6.2 °F 6.1 °F 61% 30.40 in 10.0 mi NE 9.2 mph 16.1 mph N/A   Clear
7:34 PM 16.7 °F 6.2 °F 5.9 °F 63% 30.41 in 10.0 mi NE 8.1 mph - N/A   Clear
7:53 PM 16.5 °F 6.0 °F 5.5 °F 62% 30.42 in 10.0 mi NE 8.1 mph - N/A   Clear
8:13 PM 15.8 °F 8.6 °F 5.2 °F 63% 30.41 in 10.0 mi NE 4.6 mph - N/A   Clear
8:33 PM 15.8 °F 7.2 °F 5.0 °F 62% 30.41 in 10.0 mi NNE 5.8 mph - N/A   Clear
8:53 PM 15.4 °F 3.8 °F 5.0 °F 63% 30.42 in 10.0 mi NE 9.2 mph - N/A   Clear
9:14 PM 14.9 °F 5.0 °F 4.8 °F 64% 30.42 in 10.0 mi NE 6.9 mph - N/A   Clear
9:33 PM 14.9 °F 5.0 °F 5.0 °F 65% 30.42 in 10.0 mi NE 6.9 mph - N/A   Clear
9:54 PM 14.7 °F 2.1 °F 5.5 °F 67% 30.42 in 10.0 mi NE 10.4 mph - N/A   Clear
10:14 PM 14.5 °F 1.9 °F 5.9 °F 69% 30.42 in 10.0 mi ENE 10.4 mph - N/A   Clear
10:34 PM 14.7 °F 1.4 °F 5.9 °F 68% 30.42 in 10.0 mi NE 11.5 mph 18.4 mph N/A   Clear
10:53 PM 14.5 °F 1.9 °F 5.9 °F 69% 30.42 in 10.0 mi NE 10.4 mph 17.3 mph N/A   Clear
11:14 PM 14.4 °F 2.4 °F 5.7 °F 69% 30.42 in 10.0 mi ENE 9.2 mph - N/A   Clear
11:33 PM 14.0 °F 2.0 °F 5.7 °F 70% 30.42 in 10.0 mi ENE 9.2 mph - N/A   Clear
11:54 PM 13.8 °F 2.7 °F 5.7 °F 70% 30.42 in 10.0 mi ENE 8.1 mph - N/A   Clear